GW0463 Weather Reports


time (UTC)temp
C
wind
direction
speed
KPH
gust
KPH
rain 1hr
cm
rain 24hr
cm
rain mn
cm
humidity
%
barometer
mb
20260502161600 16 278 0.0 3.2 0.00 0.00 0.00 37 1020.5
20260502151612 12 0 0.0 3.2 0.00 0.00 0.00 52 1020.6
20260502150109 11 0 0.0 6.4 0.00 0.00 0.00 55 1020.6
20260502123056 3 0 0.0 0.0 0.00 0.00 0.00 66 1019.8
20260502121601 3 0 0.0 0.0 0.00 0.00 0.00 66 1019.7
20260502120109 3 0 0.0 0.0 0.00 0.00 0.00 67 1019.7
20260502114600 3 0 0.0 0.0 0.00 0.00 0.00 66 1019.6
20260502113053 3 0 0.0 0.0 0.00 0.00 0.00 66 1019.7
20260502111559 3 0 0.0 0.0 0.00 0.00 0.00 66 1019.8
20260502110053 3 0 0.0 0.0 0.00 0.00 0.00 65 1019.7
20260502104559 3 0 0.0 0.0 0.00 0.00 0.00 64 1019.8
20260502103053 4 0 0.0 0.0 0.00 0.00 0.00 64 1019.8
20260502101555 4 0 0.0 0.0 0.00 0.00 0.00 63 1019.8
20260502100115 5 0 0.0 0.0 0.00 0.00 0.00 63 1019.8
20260502070059 7 0 0.0 0.0 0.00 0.00 0.00 57 1019.6
20260502064609 7 0 0.0 0.0 0.00 0.00 0.00 55 1019.6
20260502063058 8 0 0.0 0.0 0.00 0.00 0.00 53 1019.7
20260502061554 8 0 0.0 0.0 0.00 0.00 0.00 52 1019.5
20260502054556 9 0 0.0 0.0 0.00 0.00 0.00 52 1019.6
20260502053052 9 0 0.0 0.0 0.00 0.00 0.00 51 1019.3
20260502051643 10 0 0.0 0.0 0.00 0.00 0.00 50 1019.2
20260502050052 10 0 0.0 0.0 0.00 0.00 0.00 49 1019.1
20260502044607 10 0 0.0 0.0 0.00 0.00 0.00 48 1019.1
20260502043058 11 0 0.0 0.0 0.00 0.00 0.00 47 1019.0
20260502041552 11 0 0.0 3.2 0.00 0.00 0.00 46 1018.9
20260502040054 11 0 0.0 0.0 0.00 0.00 0.00 44 1018.9
20260502034552 12 0 0.0 1.6 0.00 0.00 0.00 42 1018.7
20260502033056 12 0 0.0 1.6 0.00 0.00 0.00 37 1018.5
20260502031608 13 0 0.0 0.0 0.00 0.00 0.00 35 1018.3
20260502030054 15 0 0.0 0.0 0.00 0.00 0.00 32 1018.1
20260502024556 16 0 0.0 0.0 0.00 0.00 0.00 30 1017.8
20260502023057 17 0 0.0 1.6 0.00 0.00 0.00 26 1017.8
20260502021556 18 0 0.0 4.8 0.00 0.00 0.00 24 1017.7
20260502020105 18 278 1.6 11.3 0.00 0.00 0.00 23 1017.6
20260502014553 18 274 3.2 11.3 0.00 0.00 0.00 21 1017.5
20260502013054 18 289 4.8 14.5 0.00 0.00 0.00 20 1017.5
20260502011552 19 283 4.8 12.9 0.00 0.00 0.00 19 1017.4
20260502010057 19 282 6.4 12.9 0.00 0.00 0.00 20 1017.5
20260502004552 19 284 8.0 16.1 0.00 0.00 0.00 19 1017.6
20260502003054 20 279 8.0 16.1 0.00 0.00 0.00 18 1017.7
20260502001558 19 287 4.8 17.7 0.00 0.00 0.00 19 1017.7
20260502000055 19 282 9.7 17.7 0.00 0.00 0.00 19 1017.7
20260501234559 20 290 8.0 19.3 0.00 0.00 0.00 19 1017.8
20260501233100 20 290 9.7 17.7 0.00 0.00 0.00 19 1017.8
20260501231600 20 306 4.8 19.3 0.00 0.00 0.00 19 1017.8
20260501230053 20 298 3.2 20.9 0.00 0.00 0.00 19 1018.1
20260501224551 19 296 9.7 20.9 0.00 0.00 0.00 19 1018.1
20260501223056 19 297 8.0 17.7 0.00 0.00 0.00 20 1018.4
20260501221555 19 305 8.0 17.7 0.00 0.00 0.00 21 1018.7
20260501220058 19 275 9.7 19.3 0.00 0.00 0.00 21 1018.9
20260501214612 19 315 8.0 16.1 0.00 0.00 0.00 20 1018.9
20260501213104 18 298 8.0 19.3 0.00 0.00 0.00 21 1019.2
20260501211555 18 312 4.8 17.7 0.00 0.00 0.00 21 1019.3
20260501210056 18 301 4.8 19.3 0.00 0.00 0.00 21 1019.4
20260501204559 18 288 8.0 17.7 0.00 0.00 0.00 22 1019.4
20260501203101 18 285 8.0 19.3 0.00 0.00 0.00 21 1019.4
20260501201557 18 296 3.2 14.5 0.00 0.00 0.00 22 1019.5
20260501200057 18 280 1.6 16.1 0.00 0.00 0.00 24 1019.6
20260501194602 17 304 3.2 11.3 0.00 0.00 0.00 22 1019.7
20260501193056 17 227 6.4 16.1 0.00 0.00 0.00 21 1019.8
20260501191554 17 298 4.8 19.3 0.00 0.00 0.00 20 1020.0
20260501190116 17 305 1.6 14.5 0.00 0.00 0.00 20 1020.1
20260501184554 17 46 3.2 16.1 0.00 0.00 0.00 22 1020.1
20260501183058 17 13 3.2 12.9 0.00 0.00 0.00 22 1020.3
20260501181552 17 42 4.8 14.5 0.00 0.00 0.00 21 1020.4
20260501180054 17 0 0.0 11.3 0.00 0.00 0.00 18 1020.5
20260501174607 17 38 1.6 11.3 0.00 0.00 0.00 23 1020.5
20260501173106 17 103 9.7 17.7 0.00 0.00 0.00 20 1020.6
20260501171600 17 90 3.2 16.1 0.00 0.00 0.00 23 1020.7
20260501170055 16 91 4.8 17.7 0.00 0.00 0.00 21 1020.7
20260501164555 16 83 4.8 17.7 0.00 0.00 0.00 24 1020.7
20260501163056 16 67 6.4 19.3 0.00 0.00 0.00 22 1020.8